Theta_e
314 319 320 323 322 315 319 319 316 317 317 316 315 319 320 319 324 325 331 333 343 341 340 340 340 337 335 335 337 338 339 339 339 340 338 337 336 334 333 333 331 331 331 327 320 317 320 322 325
319 320 323 318 319 315 314 315 316 317 317 313 314 315 317 324 324 326 330 333 344 343 339 341 340 337 335 334 334 335 336 337 339 339 338 337 334 334 333 331 327 330 329 324 320 316 313 315 320
320 320 317 319 315 316 316 314 313 315 316 317 315 315 319 323 324 327 332 335 344 344 339 340 341 338 336 335 335 335 335 336 337 338 337 336 332 329 330 329 326 323 322 319 316 312 308 308 313
318 319 314 315 317 314 314 312 314 315 317 314 314 318 318 326 327 330 332 337 342 342 342 341 341 341 338 336 335 336 335 334 335 335 336 334 331 329 328 327 326 323 316 312 311 305 302 303 306
319 313 317 315 315 315 315 314 313 315 315 314 316 317 318 325 329 330 333 337 341 342 341 342 340 339 339 337 336 336 336 334 334 334 333 335 332 330 329 328 328 327 325 320 310 304 301 302 305
317 312 316 315 314 315 315 317 317 313 312 314 314 315 317 324 326 331 333 337 339 340 342 342 340 340 341 339 338 338 336 335 334 332 333 334 333 331 330 329 329 327 326 325 323 307 301 301 303
318 313 317 317 314 315 316 316 315 312 313 315 312 314 313 318 323 330 334 338 339 340 342 341 339 341 342 341 339 339 337 335 334 333 333 334 333 332 331 330 327 326 325 324 323 319 304 300 301
312 310 315 314 315 316 314 315 314 313 315 313 313 313 311 312 319 320 326 334 336 337 336 338 339 338 340 340 339 339 338 337 336 335 334 334 333 332 331 330 328 326 325 324 323 322 319 310 301
313 310 311 315 316 316 313 315 315 314 313 311 310 310 311 312 317 317 316 314 316 321 331 335 335 335 337 338 340 338 338 337 336 336 335 334 335 332 331 329 327 326 324 323 323 323 322 319 314
313 311 314 314 314 315 314 314 313 314 313 311 310 310 312 313 315 314 311 310 311 311 311 314 325 329 332 335 337 339 337 336 335 335 336 334 335 333 332 330 328 326 324 324 323 323 322 322 321
315 313 313 314 317 314 315 315 315 314 313 312 311 309 310 310 310 309 309 310 310 310 311 311 312 315 324 332 334 337 338 336 336 336 336 335 334 334 332 330 329 327 327 326 324 323 322 321 320
313 314 314 316 315 316 316 315 315 314 312 309 307 309 308 307 307 308 308 309 309 310 311 312 313 314 318 329 332 335 335 335 336 335 334 334 334 333 332 330 329 328 328 326 324 323 323 321 321
315 315 315 315 315 315 315 316 315 312 307 307 308 307 305 306 307 307 308 308 309 310 312 312 314 317 316 330 330 331 335 335 334 333 333 332 332 330 328 328 327 328 327 327 325 324 324 324 322
315 314 315 315 315 315 315 315 314 311 305 307 307 305 304 305 306 306 306 306 309 311 311 314 318 319 318 326 329 329 332 332 331 330 329 329 329 328 326 326 326 326 326 326 325 325 322 322 321
314 314 313 313 314 314 313 313 312 309 306 307 306 304 304 304 305 304 305 306 310 311 313 315 317 319 319 327 327 328 329 328 326 325 324 326 326 326 325 324 322 322 322 322 321 321 320 320 319
314 314 316 316 312 313 312 314 314 307 307 307 305 303 303 303 303 304 304 308 310 312 313 314 316 321 324 325 326 324 322 321 322 322 321 321 321 321 320 318 317 316 317 316 317 315 315 313 313
314 315 315 317 312 312 312 314 311 308 308 307 305 303 303 301 302 303 304 308 311 313 313 314 316 319 322 322 321 320 319 318 317 318 317 316 317 317 316 314 313 314 314 312 310 309 308 306 307
316 316 316 317 314 312 312 311 312 308 307 307 305 303 303 301 300 303 305 308 311 312 314 315 315 317 318 318 317 316 315 313 314 315 314 313 312 313 313 311 310 309 309 309 307 304 298 299 303
315 316 317 315 314 313 312 312 311 308 307 306 305 304 304 302 301 303 305 308 310 311 313 314 314 313 315 313 312 309 306 307 309 309 308 308 308 307 306 305 303 302 304 304 299 296 295 294 300
314 315 315 314 313 312 312 312 311 309 309 308 308 306 305 300 299 302 305 307 308 310 313 313 313 312 310 309 308 306 303 301 302 302 303 303 303 302 300 296 294 293 294 293 292 292 292 291 293
315 316 315 316 314 312 312 313 312 311 309 308 308 307 305 301 300 300 303 306 307 309 311 311 310 309 307 307 304 301 299 295 295 296 295 294 295 294 293 291 291 291 291 290 289 289 290 289 289
316 314 315 316 316 316 312 318 314 313 312 310 309 306 304 300 300 301 302 305 306 309 311 308 308 307 306 304 303 301 297 293 291 292 291 290 290 290 290 290 290 290 289 289 288 287 288 288 287
315 314 315 315 314 315 315 314 315 314 316 315 311 308 304 300 300 301 302 304 305 305 306 306 306 305 303 303 302 299 295 292 290 289 289 289 288 288 288 289 289 288 287 286 286 286 286 286 286
312 314 313 313 314 317 316 316 318 317 317 316 311 305 301 300 299 300 301 303 302 302 303 303 303 300 299 299 297 297 294 290 288 288 288 288 288 287 287 287 287 286 286 286 285 285 285 285 285
313 314 318 320 317 321 315 316 319 316 313 313 310 305 301 300 298 298 297 297 298 298 299 301 300 298 299 298 296 296 292 290 289 289 288 287 287 287 286 286 286 285 285 285 285 285 285 284 284
313 315 318 320 321 319 311 317 317 313 310 307 308 306 302 300 299 297 296 295 295 296 297 297 297 296 296 296 295 294 291 290 289 289 288 288 288 287 285 285 285 285 285 285 285 284 284 284 284
313 316 316 319 301 311 316 314 313 310 308 308 306 304 301 299 298 295 294 294 294 294 294 295 294 294 294 294 293 291 291 290 289 289 289 288 287 285 284 285 285 285 285 285 284 284 283 283 283
313 312 316 314 316 317 318 317 320 313 311 306 305 303 301 299 296 294 293 293 293 293 293 293 293 293 293 292 292 291 290 290 290 289 288 287 286 285 285 285 285 285 284 284 284 283 283 282 282
313 314 314 315 314 317 317 320 312 315 312 307 306 304 301 299 297 295 294 292 293 292 292 292 292 292 291 291 291 290 290 290 290 289 287 286 285 285 286 286 285 284 284 283 283 282 282 282 281
313 314 313 318 316 314 315 322 308 311 310 306 305 304 302 300 297 295 294 291 291 291 290 290 290 290 290 290 290 290 289 289 288 287 286 286 286 286 286 285 285 284 284 283 283 282 282 281 281
Wind_Speed
8 7 7 3 4 5 2 3 4 3 4 3 6 14 10 4 4 5 7 9 18 19 17 15 14 14 15 14 14 13 13 12 13 14 15 15 16 17 16 17 17 16 15 15 14 14 13 14 14
8 8 3 2 5 4 2 4 8 4 5 10 9 6 9 6 5 5 4 5 19 16 19 16 15 14 14 13 12 12 12 12 13 13 13 14 15 16 16 16 16 16 15 15 14 13 12 11 12
7 5 3 4 3 4 4 4 7 4 4 2 5 6 4 3 3 4 6 10 21 14 16 15 14 13 12 12 12 12 11 11 12 11 12 13 13 14 15 16 17 17 17 16 15 14 13 10 11
6 5 4 5 3 7 7 6 8 6 3 8 6 7 5 10 3 6 7 16 15 12 14 12 13 13 11 10 10 10 10 11 11 11 11 11 12 13 14 15 17 18 18 17 16 15 14 13 12
1 3 4 4 4 4 3 7 7 5 4 5 5 4 4 6 12 11 13 16 16 14 13 13 14 13 11 10 10 10 10 10 10 10 11 11 11 11 13 14 16 18 18 18 17 16 15 15 14
4 3 4 1 4 4 3 3 3 4 4 5 7 5 3 7 10 12 12 18 15 14 9 9 14 13 12 11 10 9 10 9 9 9 10 10 10 11 12 14 16 17 18 18 19 17 16 15 15
4 4 2 2 4 4 5 3 2 6 4 4 7 5 3 5 8 11 14 17 17 16 14 10 12 11 11 10 8 8 9 8 7 7 8 9 10 10 11 13 16 16 18 20 20 19 18 16 15
4 4 4 1 5 3 6 4 4 6 1 3 3 6 5 6 10 10 9 12 14 14 14 13 11 10 8 7 8 9 9 8 7 6 7 9 9 9 9 10 12 11 15 16 18 19 18 17 15
3 4 2 5 3 5 5 4 2 2 6 5 4 4 7 13 13 14 14 12 9 8 8 10 12 11 11 10 10 9 8 7 6 6 8 9 10 9 10 9 10 10 10 10 14 14 15 16 15
4 4 1 1 3 4 5 4 7 4 4 4 5 6 9 10 13 13 13 12 10 8 4 4 9 10 10 13 9 10 11 10 7 6 7 9 11 13 11 9 8 6 7 9 10 11 13 14 15
2 3 3 3 2 5 4 3 3 6 3 4 7 9 8 14 14 16 12 9 7 6 3 3 5 8 10 11 14 8 11 11 8 8 8 11 11 15 11 8 7 8 7 9 9 9 10 10 10
3 1 3 2 3 3 2 2 2 3 5 4 10 13 10 11 10 10 9 7 6 5 3 3 4 7 11 13 11 13 11 13 14 13 13 15 16 14 11 8 9 7 7 6 6 6 5 6 6
2 2 2 4 2 1 1 1 3 5 8 9 13 11 9 11 11 10 10 7 5 4 2 2 5 9 13 16 17 16 18 17 14 14 14 14 16 15 12 11 9 9 5 4 5 4 4 3 3
2 3 3 4 5 2 3 2 1 4 8 9 9 9 8 10 10 10 8 6 4 3 1 4 4 11 16 18 19 19 17 15 14 13 14 13 15 15 12 11 10 8 6 7 5 3 1 1 3
2 2 5 5 6 3 4 6 9 6 9 10 9 8 8 9 10 9 7 6 5 3 4 6 6 11 17 20 19 19 19 19 17 16 14 15 14 14 13 11 10 9 7 4 5 3 4 4 6
1 1 1 3 9 3 5 8 4 10 12 10 10 8 8 7 10 10 9 10 7 8 8 9 10 14 19 20 22 23 21 21 20 18 16 16 15 16 17 19 17 15 14 14 12 11 9 9 9
3 3 6 5 5 5 4 7 1 5 8 9 9 9 8 7 9 11 11 11 10 12 12 12 14 18 22 25 27 27 25 24 22 20 19 20 19 18 18 18 17 14 15 16 13 14 13 13 11
6 4 5 5 7 4 5 10 4 9 8 11 10 10 10 10 9 15 13 12 13 14 14 15 18 22 24 27 28 27 26 24 22 20 18 18 17 17 17 17 16 14 15 16 15 15 17 18 15
3 3 4 5 4 5 9 8 10 11 8 9 10 11 12 12 15 18 15 14 15 16 17 20 23 25 27 29 29 28 27 25 23 21 19 18 17 16 18 20 19 19 20 18 17 18 19 23 14
8 8 9 6 4 5 6 11 9 7 13 15 18 15 14 9 9 17 18 17 18 20 21 25 27 27 27 25 25 27 29 24 26 24 21 20 20 20 21 22 24 23 23 21 19 17 22 27 22
7 7 5 8 1 3 4 7 8 8 11 9 15 11 11 17 15 11 20 22 21 22 27 29 27 22 22 24 24 29 29 29 29 27 27 24 24 24 23 23 23 22 21 23 22 20 21 18 24
8 6 6 6 1 5 4 9 7 5 10 10 18 14 16 15 11 14 20 23 26 25 29 23 24 24 23 24 29 32 33 32 29 30 29 27 24 24 23 22 21 21 21 21 21 20 21 19 17
7 2 2 3 4 1 3 4 6 9 12 18 16 15 15 17 17 17 22 26 26 25 25 25 23 22 23 25 30 31 33 34 32 31 30 28 25 23 22 21 20 20 20 21 19 19 19 19 19
7 5 6 4 2 5 12 9 7 9 16 11 6 9 15 16 15 17 25 30 27 24 26 26 26 26 28 29 30 34 37 37 35 32 31 28 25 24 21 20 19 19 19 18 18 17 16 16 16
5 7 1 3 1 8 5 8 20 5 8 10 11 12 14 16 16 16 18 24 29 28 28 29 30 28 30 30 30 32 36 36 35 33 32 30 27 23 21 19 19 18 17 16 14 12 13 12 11
8 9 6 8 5 4 3 7 6 10 7 6 8 15 16 16 16 17 21 23 27 31 31 31 32 31 30 30 32 33 34 33 32 30 28 26 25 23 21 20 17 16 14 12 10 9 10 9 8
6 9 4 2 2 1 6 7 7 4 7 3 7 13 16 17 17 17 21 25 28 32 34 34 34 32 32 33 34 33 31 31 30 27 25 25 23 23 20 17 16 13 11 9 8 7 7 6 5
7 6 3 1 2 6 5 6 9 6 13 8 8 10 10 12 13 14 20 24 27 32 35 34 34 35 34 35 34 33 32 29 28 27 26 25 24 22 19 16 13 12 10 8 7 6 5 4 3
5 5 5 5 5 5 3 8 6 11 11 12 13 14 15 16 15 14 18 23 28 32 34 35 35 35 35 34 34 32 31 29 28 27 27 26 24 21 18 15 14 12 10 8 6 5 3 1 1
3 7 6 5 7 5 2 20 5 3 4 9 11 13 13 15 14 14 20 22 26 30 35 37 37 37 36 35 34 32 31 30 29 28 28 25 23 20 18 16 14 12 9 7 5 4 2 1 2
Wind_Direction
334 331 334 19 58 71 77 22 114 77 52 14 63 90 101 66 81 146 117 106 142 149 150 145 138 137 132 127 120 115 113 107 109 109 97 88 84 82 79 74 70 69 67 63 61 62 67 69 70
358 13 46 76 83 75 268 114 86 101 156 116 97 97 61 67 40 93 69 113 164 146 157 150 144 144 140 135 123 117 115 117 118 114 103 95 91 87 83 77 72 73 67 62 58 56 58 62 68
345 349 75 91 93 145 136 149 130 144 160 187 109 60 70 342 35 88 104 125 148 138 159 157 150 147 145 142 135 128 123 123 120 118 110 100 93 86 81 74 69 68 65 60 57 54 55 59 71
343 23 27 77 95 355 125 167 136 134 20 81 119 66 56 31 88 114 94 135 131 140 146 152 155 150 149 152 142 132 130 130 128 126 119 116 101 94 86 76 70 63 60 58 55 56 58 62 71
8 62 45 112 84 97 76 139 132 149 147 79 110 119 86 50 94 103 94 129 139 141 155 154 157 156 153 155 154 145 145 139 136 134 134 134 115 103 92 80 71 65 60 56 54 56 61 64 69
22 86 50 4 128 122 76 88 97 103 131 111 76 98 116 94 96 95 106 122 128 147 145 165 170 166 166 165 163 157 153 147 143 142 141 140 127 109 95 83 72 66 60 56 53 56 62 68 72
98 73 210 93 148 126 147 116 58 151 107 75 142 89 158 102 104 112 115 119 131 121 131 144 176 171 172 175 173 163 158 153 146 140 140 146 136 122 100 88 76 69 63 56 53 54 58 62 66
94 90 337 332 196 169 170 105 118 92 92 102 82 151 180 190 133 127 136 125 126 133 129 135 161 185 190 190 186 174 165 157 150 147 148 155 146 132 114 102 78 66 60 58 55 56 55 55 59
62 61 341 316 126 161 183 118 56 140 99 59 22 100 144 152 148 135 122 111 116 127 156 168 162 167 184 183 189 188 175 173 164 167 170 171 165 157 135 113 83 72 51 52 60 50 53 53 53
81 93 266 349 341 153 169 119 157 110 127 70 66 85 122 145 166 142 126 110 105 100 120 165 185 194 185 188 170 187 186 185 194 192 185 176 169 159 153 147 132 97 65 46 67 58 55 50 48
27 153 308 351 68 37 135 108 180 134 148 202 175 160 133 111 114 116 115 111 113 119 156 170 185 189 183 175 189 174 181 185 186 187 176 173 184 162 154 139 122 116 93 90 78 70 69 56 49
55 150 92 314 26 43 76 99 118 92 148 113 127 145 130 123 120 124 124 127 136 137 186 206 189 174 170 167 164 182 172 167 155 146 142 140 140 152 149 140 135 123 103 102 91 81 70 55 45
131 271 100 123 88 40 25 135 183 148 153 125 124 118 129 131 135 130 131 127 139 171 219 234 195 173 158 156 173 175 156 148 145 151 143 152 150 144 150 145 141 133 121 134 120 99 80 60 46
185 343 285 191 187 210 175 256 135 177 155 141 137 139 139 139 146 137 137 135 145 176 217 141 145 169 164 164 171 172 156 156 151 139 144 148 150 150 152 149 143 140 139 138 154 155 127 72 45
91 330 304 230 196 217 152 288 226 178 164 156 160 155 145 151 143 152 152 147 171 167 143 142 146 153 164 158 166 157 148 139 132 130 135 134 139 141 139 131 119 114 125 126 100 85 69 52 41
205 105 292 267 157 195 119 267 277 172 155 175 173 171 161 166 158 157 156 155 164 153 145 147 157 149 152 156 149 141 134 128 123 119 120 119 117 119 117 108 105 103 100 91 88 79 69 52 41
320 231 215 298 170 129 162 264 214 158 169 186 192 185 177 171 160 162 164 166 160 150 147 153 157 158 152 145 140 136 134 128 123 122 120 118 120 120 117 110 107 107 102 93 85 71 49 39 46
209 225 259 229 221 156 186 255 224 209 192 204 199 188 187 183 183 169 164 165 157 155 155 156 158 156 151 147 141 136 132 129 129 129 129 125 121 121 120 115 112 106 105 100 84 70 59 52 62
213 226 250 268 226 149 218 245 230 217 221 217 213 203 196 188 170 166 166 165 159 161 159 159 159 157 155 150 144 137 129 129 128 128 128 125 124 122 117 110 106 101 102 99 84 79 68 59 81
246 258 267 289 205 169 261 248 250 205 224 210 211 209 197 159 161 163 166 170 169 165 165 162 161 160 153 157 152 145 136 129 128 126 123 123 124 119 114 110 104 101 101 95 84 76 74 62 56
217 207 232 225 253 258 288 270 246 241 224 217 227 217 192 174 166 164 173 178 175 170 165 157 153 159 166 165 157 141 134 127 125 124 120 119 119 117 113 108 104 98 92 86 81 75 74 87 65
237 208 208 240 210 248 160 282 249 232 243 216 228 197 187 177 164 162 173 179 178 173 166 165 166 168 170 169 159 152 146 135 132 127 124 123 121 117 114 108 102 97 94 89 84 79 76 76 80
231 117 172 214 199 311 250 295 262 211 249 252 238 212 187 173 164 169 173 177 178 172 170 171 170 170 169 172 164 158 147 140 137 132 128 124 121 117 113 108 104 99 93 91 86 82 77 75 78
152 78 41 40 81 256 231 203 225 227 235 255 231 188 169 166 167 163 167 175 172 170 168 166 166 163 163 165 167 161 152 145 140 137 132 130 128 124 120 117 110 106 102 94 87 82 79 78 80
127 107 289 318 301 246 229 218 251 260 249 232 215 183 168 165 162 161 161 169 172 173 173 174 172 163 170 171 170 165 157 153 149 148 145 142 137 132 128 124 119 113 103 95 88 84 82 81 80
194 164 164 216 212 261 14 239 247 227 249 280 222 182 167 167 169 169 167 167 171 177 178 178 175 168 170 171 169 167 162 159 155 153 150 145 142 139 138 133 122 113 104 97 93 88 84 82 82
202 208 186 11 37 13 217 281 294 252 264 263 180 166 177 172 170 167 165 171 176 179 181 179 174 170 169 168 166 166 166 162 158 156 154 151 149 145 141 134 127 119 115 114 113 104 95 86 76
150 159 91 82 228 253 259 248 230 214 241 214 198 186 180 172 166 169 171 173 178 183 183 181 177 171 170 169 169 167 167 167 164 163 162 160 155 151 147 142 139 139 138 132 124 112 106 92 74
160 196 198 136 164 199 287 258 213 217 223 200 206 194 182 180 177 174 174 175 178 184 184 183 180 174 170 170 169 168 169 171 171 170 168 165 159 159 158 157 156 154 150 143 135 130 119 113 57
277 189 166 161 218 236 182 263 171 133 254 197 204 194 187 183 177 174 173 168 173 180 185 185 183 179 175 174 174 175 174 175 174 174 173 171 167 168 168 168 167 164 160 155 156 152 180 230 280